{"data":{"norad_id":52101,"intl_designator":"2022-029P","name":"STARLINK-3703","alt_names":[],"object_type":"PAYLOAD","status":"ACTIVE","operator":null,"country":"US","launch_date":"2022-03-19","launch_site_code":"AFETR","launch_vehicle":null,"mission":null,"orbit_class":"UNKNOWN","rcs_meters":null,"size_class":null,"mass_kg":null,"dimensions":null,"purposes":["comms"],"wikipedia_slug":null,"has_3d_model":false,"image_url":null,"decayed_at":null,"tle_current":{"epoch":"2026-09-19T16:35:38.610240Z","epoch_age_seconds":126117,"freshness":"FRESH","line1":"1 52101U 22029P   26262.69141910  .00001323  00000+0  50319-4 0  9993","line2":"2 52101  53.1591 285.8357 0001271  84.8673 275.2475 15.34377095250104","mean_motion":15.34377095,"eccentricity":0.0001271,"inclination_deg":53.1591,"raan_deg":285.8357,"arg_perigee_deg":84.8673,"mean_anomaly_deg":275.2475,"bstar":5.0319e-5,"rev_number":25010,"period_min":93.84915902958,"perigee_km":461.90184009359,"apogee_km":463.64079898842,"semimajor_km":6840.908319541,"source":"CELESTRAK","updated_at":"2026-09-20T09:00:39.985890Z"}}}